Earth resources
NORAD ID: 25919
Int'l Code: 1999-051A
Perigee: 685.1 km
Apogee: 686.9 km
Inclination: 98.1 °
Period: 98.3 minutes
Semi major axis: 7056 km
Launch date: September 24, 1999
Source: United States (US)
Comments: Black and white imaging with 1 meter resolution. Same geography every three days.
Ikonos 2 was an American (privately owned) imaging satellite launched by an Athena 2 rocket at 18:22 UT from Vandenberg AFB. Its one-meter resolution images will be marketed under the brand name of Carterra about two or three months after launch.
Two Line Element Set (TLE):
1 25919U 99051A 13169.38109151 .00000220 00000-0 50556-4 0 1348
2 25919 098.1035 244.3382 0001277 104.1017 256.0325 14.64443532734060
Source: AFSPC
NASA's NSSDC Master Catalog entry for IKONOS 2